Weather Roundup
Issued by NWS Springfield, MO

Home | Current Version | Previous Version | Text Only | Print | Product List | Glossary On
Versions: 1 2 3 4 5 6 7 8 9 10 11 12 13 14 15 16 17 18 19 20 21 22 23 24 25 26 27 28 29 30 31 32 33 34 35 36 37 38 39 40 41 42 43 44 45 46 47 48 49 50
000
NZUS99 KSGF 050907
HRRSGF

HOURLY WEATHER
NATIONAL WEATHER SERVICE SPRINGFIELD MO
300 AM CST MON DEC 05 2016

......SGF CWA......

CITY           SKY/WX    TMP DP  RH WIND       PRES   REMARKS
SPRINGFIELD    CLOUDY    32  31  96 S6        30.03R FOG     WCI  26
JOPLIN         CLOUDY    34  33  96 S7        30.04S WCI  28
WEST PLAINS    FOG       29  27  92 CALM      30.05F VSB 1/4
ROLLA          CLOUDY    30  30 100 S6        30.02S FOG     WCI  24
OSAGE BEACH    CLOUDY    28  27  96 SE3       30.04S
BRANSON        PTCLDY    36  36 100 CALM      30.04F

......SURROUNDING SGF CWA......

CITY           SKY/WX    TMP DP  RH WIND       PRES   REMARKS
CHANUTE        CLEAR     34  32  92 S8        29.99F WCI  27
PARSONS        CLOUDY    35  33  92 S5        30.02S WCI  31
COFFEYVILLE    CLOUDY    34  33  96 S3        30.02F
EMPORIA        CLEAR     32  32 100 S14       29.95R FOG     WCI  22
GROVE OK       CLOUDY    32  32 100 CALM      30.06S
ROGERS AR      CLOUDY    31  31 100 E3        30.04S VSB 1/4
SILOAM SPRINGS CLOUDY    30  28  93 CALM      30.03S
HARRISON AR    CLOUDY    32  32 100 W3        30.03F FOG
NEAR YELLVILLE CLOUDY    30  27  86 CALM      30.03F VSB 1/4

......KANSAS AND MISSOURI......

CITY           SKY/WX    TMP DP  RH WIND       PRES   REMARKS
KANSAS CTY INT CLEAR     33  30  88 S6        29.94F WCI  28
DOWNTOWN KC    CLEAR     33  30  88 CALM      29.96F
COLUMBIA       FOG       28  27  96 S7        30.02S VSB 1/4 WCI  21
SEDALIA        CLEAR     31  29  92 S7        30.01S FOG     WCI  24
ST JOSEPH      CLEAR     29  28  96 S6        29.94F WCI  23
ST LOUIS       MOCLDY    36  31  82 SW3       30.06R
SPIRIT OF STL  FOG       28  28 100 CALM      30.06F VSB 1/4
KIRKSVILLE     FOG       29  28  96 SW3       29.99F VSB 1/4
WICHITA        CLEAR     34  32  92 S9        29.95R WCI  27
TOPEKA         CLEAR     32  29  88 CALM      29.92F
OLATHE         FOG       28  27  96 S6        29.97R VSB 1/4 WCI  22

......TENNESSEE......

CITY           SKY/WX    TMP DP  RH WIND       PRES   REMARKS
MEMPHIS        CLOUDY    44  40  85 NE9       30.04F
NASHVILLE      CLOUDY    45  42  89 N7        30.05F

......ARKANSAS.......

CITY           SKY/WX    TMP DP  RH WIND       PRES   REMARKS
FAYETTEVILLE   FOG       29  29 100 CALM      30.04F VSB 1/2
FT SMITH       CLOUDY    38  36  92 CALM      30.05S
LITTLE ROCK    CLOUDY    40  40 100 CALM      30.05S FOG

......OKLAHOMA.......

CITY           SKY/WX    TMP DP  RH WIND       PRES   REMARKS
TULSA          CLOUDY    39  38  96 SE7       30.01F WCI  34
PONCA CITY     CLOUDY    37  33  85 S5        29.99F WCI  33
MCALESTER      CLOUDY    36  34  92 SE3       30.03F FOG
OKLAHOMA CITY  CLOUDY    33  33 100 CALM      29.98F FOG

......IOWA............

CITY           SKY/WX    TMP DP  RH WIND       PRES   REMARKS
DES MOINES     CLOUDY    31  29  92 S7        29.91S WCI  24
QUAD CITIES    CLOUDY    35  31  85 SW7       29.99R WCI  29

......ILLINOIS........

CITY           SKY/WX    TMP DP  RH WIND       PRES   REMARKS
QUINCY         FOG       33  33 100 W8        30.01R VSB 1/4 WCI  26
CHICAGO        CLOUDY    33  30  88 W9        29.98R WCI  25




USA.gov is the U.S. government's official web portal to all federal, state and local government web resources and services.